Time,TemperatureF,DewpointF,PressureIn,WindDirection,WindDirectionDegrees,WindSpeedMPH,WindSpeedGustMPH,Humidity,HourlyPrecipIn,Conditions,Clouds,dailyrainin,SoftwareType,DateUTC
2013-06-30 00:44:00,64.0,48.0,-100.00,SE,128,0.0,1.0,55,-99.99,,,-99.99,,2013-06-30 07:44:00,
2013-06-30 00:53:00,64.0,48.0,-100.00,SE,128,0.0,1.0,55,-99.99,,,-99.99,,2013-06-30 07:53:00,
2013-06-30 01:02:00,65.0,48.0,-100.00,SSE,151,0.0,2.0,54,-99.99,,,-99.99,,2013-06-30 08:02:00,
2013-06-30 01:11:00,65.0,48.0,-100.00,SSE,151,0.0,2.0,54,-99.99,,,-99.99,,2013-06-30 08:11:00,
2013-06-30 01:33:00,65.0,47.0,-100.00,SSE,164,1.0,2.0,53,-99.99,,,-99.99,,2013-06-30 08:33:00,
2013-06-30 01:42:00,64.0,46.0,-100.00,SSE,164,0.0,2.0,52,-99.99,,,-99.99,,2013-06-30 08:42:00,
2013-06-30 01:53:00,64.0,46.0,-100.00,SSE,164,0.0,2.0,52,-99.99,,,-99.99,,2013-06-30 08:53:00,
2013-06-30 02:01:00,64.0,46.0,-100.00,SSE,164,0.0,2.0,52,-99.99,,,-99.99,,2013-06-30 09:01:00,
2013-06-30 02:11:00,64.0,46.0,-100.00,SSE,164,0.0,2.0,52,-99.99,,,-99.99,,2013-06-30 09:11:00,
2013-06-30 02:34:00,63.0,48.0,-100.00,SSE,152,0.0,1.0,58,-99.99,,,-99.99,,2013-06-30 09:34:00,
2013-06-30 02:43:00,63.0,48.0,-100.00,SSE,152,0.0,1.0,58,-99.99,,,-99.99,,2013-06-30 09:43:00,
2013-06-30 02:53:00,62.0,51.0,-100.00,SSE,165,1.0,2.0,68,-99.99,,,-99.99,,2013-06-30 09:53:00,
2013-06-30 03:02:00,62.0,51.0,-100.00,SSE,165,1.0,2.0,68,-99.99,,,-99.99,,2013-06-30 10:02:00,
2013-06-30 03:11:00,61.0,52.0,-100.00,SSE,162,1.0,2.0,72,-99.99,,,-99.99,,2013-06-30 10:11:00,
2013-06-30 03:22:00,61.0,52.0,-100.00,SSE,162,1.0,2.0,72,-99.99,,,-99.99,,2013-06-30 10:22:00,
2013-06-30 03:33:00,61.0,49.0,-100.00,SSE,168,1.0,2.0,64,-99.99,,,-99.99,,2013-06-30 10:33:00,
2013-06-30 03:42:00,61.0,49.0,-100.00,SSE,168,1.0,2.0,64,-99.99,,,-99.99,,2013-06-30 10:42:00,
2013-06-30 03:53:00,60.0,48.0,-100.00,SSE,152,0.0,1.0,63,-99.99,,,-99.99,,2013-06-30 10:53:00,
2013-06-30 04:02:00,60.0,48.0,-100.00,SSE,152,0.0,1.0,63,-99.99,,,-99.99,,2013-06-30 11:02:00,
2013-06-30 04:11:00,60.0,48.0,-100.00,SSE,147,0.0,2.0,63,-99.99,,,-99.99,,2013-06-30 11:11:00,
2013-06-30 04:22:00,60.0,48.0,-100.00,SSE,147,0.0,2.0,63,-99.99,,,-99.99,,2013-06-30 11:22:00,
2013-06-30 04:33:00,59.0,47.0,-100.00,SE,124,0.0,1.0,65,-99.99,,,-99.99,,2013-06-30 11:33:00,
2013-06-30 04:43:00,59.0,47.0,-100.00,SE,124,0.0,1.0,65,-99.99,,,-99.99,,2013-06-30 11:43:00,
2013-06-30 04:53:00,59.0,47.0,-100.00,SSE,162,0.0,1.0,65,-99.99,,,-99.99,,2013-06-30 11:53:00,
2013-06-30 05:01:00,59.0,47.0,-100.00,SSE,162,0.0,1.0,65,-99.99,,,-99.99,,2013-06-30 12:01:00,
2013-06-30 05:11:00,60.0,46.0,-100.00,SSE,155,0.0,2.0,59,-99.99,,,-99.99,,2013-06-30 12:11:00,
2013-06-30 05:24:00,60.0,46.0,-100.00,SSE,155,0.0,2.0,59,-99.99,,,-99.99,,2013-06-30 12:24:00,
2013-06-30 05:33:00,60.0,48.0,-100.00,SSE,167,1.0,2.0,65,-99.99,,,-99.99,,2013-06-30 12:33:00,
2013-06-30 05:43:00,60.0,48.0,-100.00,SSE,167,1.0,2.0,65,-99.99,,,-99.99,,2013-06-30 12:43:00,
2013-06-30 05:52:00,60.0,48.0,-100.00,SSE,167,1.0,2.0,65,-99.99,,,-99.99,,2013-06-30 12:52:00,
2013-06-30 06:02:00,60.0,48.0,-100.00,South,169,1.0,2.0,66,-99.99,,,-99.99,,2013-06-30 13:02:00,
2013-06-30 06:33:00,59.0,48.0,-100.00,East,80,0.0,1.0,67,-99.99,,,-99.99,,2013-06-30 13:33:00,
2013-06-30 06:43:00,58.0,48.0,-100.00,SE,138,0.0,1.0,68,-99.99,,,-99.99,,2013-06-30 13:43:00,
2013-06-30 06:53:00,58.0,48.0,-100.00,SE,138,0.0,1.0,68,-99.99,,,-99.99,,2013-06-30 13:53:00,
2013-06-30 07:02:00,59.0,49.0,-100.00,SSE,147,0.0,1.0,71,-99.99,,,-99.99,,2013-06-30 14:02:00,
2013-06-30 07:11:00,59.0,49.0,-100.00,SSE,147,0.0,1.0,71,-99.99,,,-99.99,,2013-06-30 14:11:00,
2013-06-30 07:22:00,59.0,49.0,-100.00,SSE,147,0.0,1.0,71,-99.99,,,-99.99,,2013-06-30 14:22:00,
2013-06-30 07:33:00,59.0,49.0,-100.00,SSE,147,0.0,1.0,71,-99.99,,,-99.99,,2013-06-30 14:33:00,
2013-06-30 07:44:00,60.0,49.0,-100.00,ENE,78,0.0,2.0,65,-99.99,,,-99.99,,2013-06-30 14:44:00,
2013-06-30 07:52:00,60.0,49.0,-100.00,ENE,78,0.0,2.0,65,-99.99,,,-99.99,,2013-06-30 14:52:00,
2013-06-30 08:01:00,63.0,53.0,-100.00,WNW,288,1.0,3.0,69,-99.99,,,-99.99,,2013-06-30 15:01:00,
2013-06-30 08:02:00,60.0,49.0,-100.00,ENE,78,0.0,2.0,65,-99.99,,,-99.99,,2013-06-30 15:02:00,
2013-06-30 08:12:00,60.0,49.0,-100.00,ENE,78,0.0,2.0,65,-99.99,,,-99.99,,2013-06-30 15:12:00,
2013-06-30 08:34:00,63.0,53.0,-100.00,WNW,288,1.0,3.0,69,-99.99,,,-99.99,,2013-06-30 15:34:00,
2013-06-30 08:44:00,63.0,53.0,-100.00,WNW,288,1.0,3.0,69,-99.99,,,-99.99,,2013-06-30 15:44:00,
2013-06-30 08:53:00,63.0,53.0,-100.00,WNW,288,1.0,3.0,69,-99.99,,,-99.99,,2013-06-30 15:53:00,
2013-06-30 09:11:00,65.0,55.0,-100.00,NW,318,1.0,4.0,69,-99.99,,,-99.99,,2013-06-30 16:11:00,
2013-06-30 09:21:00,65.0,55.0,-100.00,NW,318,1.0,4.0,69,-99.99,,,-99.99,,2013-06-30 16:21:00,
2013-06-30 09:34:00,65.0,56.0,-100.00,NW,315,1.0,3.0,73,-99.99,,,-99.99,,2013-06-30 16:34:00,
2013-06-30 09:43:00,65.0,56.0,-100.00,NW,315,1.0,3.0,73,-99.99,,,-99.99,,2013-06-30 16:43:00,
2013-06-30 09:53:00,65.0,53.0,-100.00,NW,306,1.0,4.0,64,-99.99,,,-99.99,,2013-06-30 16:53:00,
2013-06-30 10:01:00,65.0,53.0,-100.00,NW,306,1.0,4.0,64,-99.99,,,-99.99,,2013-06-30 17:01:00,
2013-06-30 10:11:00,65.0,55.0,-100.00,WNW,289,2.0,5.0,70,-99.99,,,-99.99,,2013-06-30 17:11:00,
2013-06-30 10:23:00,65.0,55.0,-100.00,WNW,289,2.0,5.0,70,-99.99,,,-99.99,,2013-06-30 17:23:00,
2013-06-30 11:01:00,67.0,53.0,-100.00,NW,304,1.0,5.0,62,-99.99,,,-99.99,,2013-06-30 18:01:00,
2013-06-30 11:12:00,67.0,53.0,-100.00,NW,304,1.0,5.0,62,-99.99,,,-99.99,,2013-06-30 18:12:00,
2013-06-30 11:43:00,70.0,50.0,-100.00,WNW,294,2.0,5.0,48,-99.99,,,-99.99,,2013-06-30 18:43:00,
2013-06-30 11:53:00,70.0,50.0,-100.00,WNW,294,2.0,5.0,48,-99.99,,,-99.99,,2013-06-30 18:53:00,
2013-06-30 12:01:00,73.0,50.0,-100.00,NW,308,1.0,4.0,44,-99.99,,,-99.99,,2013-06-30 19:01:00,
2013-06-30 12:11:00,73.0,50.0,-100.00,NW,308,1.0,4.0,44,-99.99,,,-99.99,,2013-06-30 19:11:00,
2013-06-30 12:33:00,76.0,48.0,-100.00,WNW,302,1.0,4.0,37,-99.99,,,-99.99,,2013-06-30 19:33:00,
2013-06-30 12:43:00,77.0,48.0,-100.00,NNW,336,1.0,5.0,36,-99.99,,,-99.99,,2013-06-30 19:43:00,
2013-06-30 12:53:00,77.0,48.0,-100.00,NNW,336,1.0,5.0,36,-99.99,,,-99.99,,2013-06-30 19:53:00,
2013-06-30 13:01:00,78.0,51.0,-100.00,NW,323,1.0,6.0,38,-99.99,,,-99.99,,2013-06-30 20:01:00,
2013-06-30 13:11:00,78.0,51.0,-100.00,NW,323,1.0,6.0,38,-99.99,,,-99.99,,2013-06-30 20:11:00,
2013-06-30 13:22:00,78.0,51.0,-100.00,NW,323,1.0,6.0,38,-99.99,,,-99.99,,2013-06-30 20:22:00,
2013-06-30 13:34:00,78.0,51.0,-100.00,NW,323,1.0,6.0,38,-99.99,,,-99.99,,2013-06-30 20:34:00,
2013-06-30 14:01:00,82.0,42.0,-100.00,WNW,298,1.0,4.0,24,-99.99,,,-99.99,,2013-06-30 21:01:00,
2013-06-30 14:11:00,82.0,42.0,-100.00,WNW,298,1.0,4.0,24,-99.99,,,-99.99,,2013-06-30 21:11:00,
2013-06-30 14:22:00,82.0,42.0,-100.00,WNW,298,1.0,4.0,24,-99.99,,,-99.99,,2013-06-30 21:22:00,
2013-06-30 14:33:00,82.0,44.0,-100.00,West,265,2.0,5.0,27,-99.99,,,-99.99,,2013-06-30 21:33:00,
2013-06-30 14:42:00,82.0,44.0,-100.00,West,265,2.0,5.0,27,-99.99,,,-99.99,,2013-06-30 21:42:00,
2013-06-30 14:53:00,84.0,52.0,-100.00,NW,313,1.0,5.0,33,-99.99,,,-99.99,,2013-06-30 21:53:00,
2013-06-30 15:01:00,84.0,52.0,-100.00,NW,313,1.0,5.0,33,-99.99,,,-99.99,,2013-06-30 22:01:00,
2013-06-30 15:11:00,84.0,52.0,-100.00,NW,313,1.0,5.0,33,-99.99,,,-99.99,,2013-06-30 22:11:00,
2013-06-30 15:53:00,86.0,47.0,-100.00,WNW,299,2.0,5.0,25,-99.99,,,-99.99,,2013-06-30 22:53:00,
2013-06-30 16:01:00,86.0,47.0,-100.00,WNW,299,2.0,5.0,25,-99.99,,,-99.99,,2013-06-30 23:01:00,
2013-06-30 16:11:00,88.0,48.0,-100.00,NW,304,2.0,5.0,26,-99.99,,,-99.99,,2013-06-30 23:11:00,
2013-06-30 16:22:00,88.0,48.0,-100.00,NW,304,2.0,5.0,26,-99.99,,,-99.99,,2013-06-30 23:22:00,
2013-06-30 16:30:00,86.0,50.0,-100.00,WNW,282,2.0,6.0,29,-99.99,,,-99.99,,2013-06-30 23:30:00,
2013-06-30 16:33:00,87.0,52.0,-100.00,NW,325,1.0,4.0,30,-99.99,,,-99.99,,2013-06-30 23:33:00,
2013-06-30 16:43:00,87.0,52.0,-100.00,NW,325,1.0,4.0,30,-99.99,,,-99.99,,2013-06-30 23:43:00,
2013-06-30 16:51:00,86.0,50.0,-100.00,North,-999,-999.0,-999.0,29,-99.99,,,-99.99,,2013-06-30 23:51:00,
2013-06-30 16:53:00,86.0,51.0,-100.00,WNW,282,2.0,6.0,30,-99.99,,,-99.99,,2013-06-30 23:53:00,
2013-06-30 17:01:00,86.0,51.0,-100.00,WNW,282,2.0,6.0,30,-99.99,,,-99.99,,2013-07-01 00:01:00,
2013-06-30 17:11:00,86.0,51.0,-100.00,WNW,282,2.0,6.0,30,-99.99,,,-99.99,,2013-07-01 00:11:00,
2013-06-30 17:42:00,86.0,50.0,-100.00,North,-999,-999.0,-999.0,29,-99.99,,,-99.99,,2013-07-01 00:42:00,
2013-06-30 18:01:00,86.0,52.0,-100.00,NW,313,2.0,5.0,31,-99.99,,,-99.99,,2013-07-01 01:01:00,
2013-06-30 18:11:00,86.0,52.0,-100.00,NW,313,2.0,5.0,31,-99.99,,,-99.99,,2013-07-01 01:11:00,
2013-06-30 18:33:00,84.0,50.0,-100.00,NW,305,1.0,5.0,32,-99.99,,,-99.99,,2013-07-01 01:33:00,
2013-06-30 18:42:00,83.0,51.0,-100.00,North,0,2.0,5.0,32,-99.99,,,-99.99,,2013-07-01 01:42:00,
2013-06-30 18:52:00,83.0,51.0,-100.00,North,0,2.0,5.0,32,-99.99,,,-99.99,,2013-07-01 01:52:00,
2013-06-30 19:02:00,81.0,52.0,-100.00,NNE,16,2.0,6.0,36,-99.99,,,-99.99,,2013-07-01 02:02:00,
2013-06-30 19:11:00,81.0,52.0,-100.00,NNE,16,2.0,6.0,36,-99.99,,,-99.99,,2013-07-01 02:11:00,
2013-06-30 19:33:00,79.0,53.0,-100.00,North,350,1.0,4.0,40,-99.99,,,-99.99,,2013-07-01 02:33:00,
2013-06-30 19:43:00,78.0,54.0,-100.00,North,8,1.0,5.0,43,-99.99,,,-99.99,,2013-07-01 02:43:00,
2013-06-30 19:53:00,78.0,54.0,-100.00,North,8,1.0,5.0,43,-99.99,,,-99.99,,2013-07-01 02:53:00,
2013-06-30 20:01:00,78.0,54.0,-100.00,North,8,1.0,5.0,43,-99.99,,,-99.99,,2013-07-01 03:01:00,
2013-06-30 20:11:00,78.0,54.0,-100.00,North,8,1.0,5.0,43,-99.99,,,-99.99,,2013-07-01 03:11:00,
2013-06-30 20:33:00,75.0,53.0,-100.00,SE,137,0.0,2.0,48,-99.99,,,-99.99,,2013-07-01 03:33:00,
2013-06-30 20:43:00,75.0,53.0,-100.00,SE,137,0.0,2.0,48,-99.99,,,-99.99,,2013-07-01 03:43:00,
2013-06-30 20:52:00,73.0,53.0,-100.00,South,191,1.0,3.0,51,-99.99,,,-99.99,,2013-07-01 03:52:00,
2013-06-30 21:01:00,73.0,53.0,-100.00,South,191,1.0,3.0,51,-99.99,,,-99.99,,2013-07-01 04:01:00,
2013-06-30 21:11:00,71.0,53.0,-100.00,South,176,1.0,2.0,53,-99.99,,,-99.99,,2013-07-01 04:11:00,
2013-06-30 21:22:00,71.0,53.0,-100.00,South,176,1.0,2.0,53,-99.99,,,-99.99,,2013-07-01 04:22:00,
2013-06-30 21:32:00,70.0,52.0,-100.00,SSE,168,1.0,3.0,53,-99.99,,,-99.99,,2013-07-01 04:32:00,
2013-06-30 21:42:00,70.0,52.0,-100.00,SSE,168,1.0,3.0,53,-99.99,,,-99.99,,2013-07-01 04:42:00,
2013-06-30 21:53:00,69.0,52.0,-100.00,South,174,0.0,2.0,54,-99.99,,,-99.99,,2013-07-01 04:53:00,
2013-06-30 22:01:00,69.0,52.0,-100.00,South,174,0.0,2.0,54,-99.99,,,-99.99,,2013-07-01 05:01:00,
2013-06-30 22:11:00,70.0,51.0,-100.00,SSE,165,1.0,2.0,52,-99.99,,,-99.99,,2013-07-01 05:11:00,
2013-06-30 22:22:00,70.0,51.0,-100.00,SSE,165,1.0,2.0,52,-99.99,,,-99.99,,2013-07-01 05:22:00,
2013-06-30 22:32:00,70.0,51.0,-100.00,SSE,165,1.0,2.0,52,-99.99,,,-99.99,,2013-07-01 05:32:00,
2013-06-30 22:42:00,70.0,51.0,-100.00,SSE,165,1.0,2.0,52,-99.99,,,-99.99,,2013-07-01 05:42:00,
2013-06-30 23:02:00,69.0,50.0,-100.00,South,169,0.0,1.0,52,-99.99,,,-99.99,,2013-07-01 06:02:00,
2013-06-30 23:12:00,68.0,50.0,-100.00,North,-999,0.0,0.0,54,-99.99,,,-99.99,,2013-07-01 06:12:00,
2013-06-30 23:24:00,68.0,50.0,-100.00,North,-999,0.0,0.0,54,-99.99,,,-99.99,,2013-07-01 06:24:00,
2013-06-30 23:33:00,68.0,50.0,-100.00,North,-999,0.0,0.0,54,-99.99,,,-99.99,,2013-07-01 06:33:00,
2013-06-30 23:43:00,67.0,50.0,-100.00,South,172,0.0,2.0,53,-99.99,,,-99.99,,2013-07-01 06:43:00,
2013-06-30 23:53:00,67.0,50.0,-100.00,South,172,0.0,2.0,53,-99.99,,,-99.99,,2013-07-01 06:53:00,